Location: Marcé
(47.5801°N, 0.3280°W)
Time: 16:06:05
(UTC+01:00)

Transit 2A - Pass Details

Date: 04 December 2021
Orbit: 591 x 967 km, 66.7° (Epoch: 21 January)

Event Time Altitude Azimuth Distance (km) Brightness Sun altitude
Rises 03:03:02 0° 257° (WSW) 3,399 - -53.5°
Reaches altitude 10° 03:05:49 10° 269° (W) 2,526 - -53.1°
Maximum altitude 03:10:46 27° 326° (NW) 1,705 - -52.4°
Drops below altitude 10° 03:16:00 10° 22° (NNE) 2,685 - -51.6°
Exits shadow 03:17:20 - 28° (NNE) 3,092 9.5 -51.4°
Sets 03:19:04 0° 35° (NE) 3,656 10.0 -51.1°
